Location: ???????
(55.4362°N, 38.1183°E)
Time: 14:16:36
(UTC+00:00)

Oscar 11 - Pass Details

Date: 12 December 2021
Orbit: 611 x 625 km, 97.6° (Epoch: 25 January)

Event Time Altitude Azimuth Distance (km) Brightness Sun altitude
Rises 02:18:26 0° 20° (NNE) 2,918 10.7 -27.6°
Reaches altitude 10° 02:20:50 10° 30° (NNE) 2,004 10.0 -27.3°
Maximum altitude 02:24:46 32° 95° (E) 1,063 8.8 -26.7°
Drops below altitude 10° 02:28:40 10° 159° (SSE) 1,981 9.9 -26.2°
Sets 02:31:01 0° 169° (S) 2,880 10.7 -25.9°
